Temp
14 14 14 15 15 15 15 15 16 16 16 17 17 18 18 19 19 19 19 20 20 20 20 20 20 20 21 20 20 20 12 14 16 15 18 19 18 19 19 18 18 18 18 18 16
13 14 14 14 15 15 15 15 16 16 16 17 17 18 18 18 19 19 19 19 20 20 20 20 20 20 20 19 19 16 12 15 16 15 17 18 19 19 19 17 17 17 18 18 17
13 13 14 14 15 15 15 15 15 16 16 17 17 18 18 18 18 19 19 19 19 19 19 19 20 20 19 19 18 16 15 16 18 18 18 18 18 19 18 16 18 19 19 17 17
14 14 14 14 14 14 15 15 15 15 16 16 17 17 18 18 17 18 19 19 19 19 19 19 19 19 17 17 18 18 17 18 18 18 18 18 19 18 19 20 21 20 20 19 18
13 14 14 14 14 14 15 15 15 15 16 16 17 17 17 18 18 18 18 19 18 19 19 19 19 19 16 17 18 17 17 18 18 18 18 18 18 17 18 20 20 19 18 19 18
13 13 14 14 14 14 15 15 15 15 16 16 16 17 17 17 17 18 18 18 18 18 18 19 19 19 18 17 17 17 17 17 17 17 18 17 17 17 19 19 19 19 19 18 18
13 13 13 13 14 14 14 15 15 15 15 16 16 16 17 17 17 17 17 18 18 18 18 18 19 19 18 17 17 17 16 14 16 16 16 17 15 14 19 18 18 18 17 17 17
12 13 13 13 14 14 14 14 14 15 15 15 16 16 17 17 17 17 17 17 17 18 18 18 18 18 18 17 15 15 13 14 15 14 16 16 13 15 18 17 17 16 16 16 16
11 12 12 13 13 14 14 14 14 14 14 15 15 15 16 16 16 16 16 16 16 17 17 17 17 16 16 12 12 11 13 13 13 14 14 14 14 15 15 14 15 16 16 16 16
9 10 11 12 13 13 13 13 14 14 14 14 14 15 16 16 16 16 15 15 16 16 16 16 16 10 9 11 12 13 13 12 13 14 13 13 11 11 14 14 15 15 15 15 16
9 9 10 11 11 12 13 12 13 13 13 16 15 15 15 15 15 14 15 15 15 15 13 13 11 11 11 11 13 13 12 13 14 14 14 12 11 13 14 13 13 15 15 15 16
10 9 9 9 10 11 12 12 13 12 13 15 14 14 14 14 14 14 14 14 14 12 11 11 11 12 12 12 13 13 13 12 11 12 12 12 11 11 12 12 15 16 16 17 17
9 9 9 9 9 10 11 12 12 12 11 13 15 15 15 15 15 15 14 14 12 10 10 10 14 11 12 11 12 11 11 11 13 13 12 11 10 11 13 13 15 16 17 17 18
9 9 9 9 8 9 11 11 11 12 9 10 11 13 14 14 13 15 14 15 11 11 10 10 12 12 11 11 11 11 11 12 12 13 11 12 10 11 12 12 11 16 17 18 18
8 8 8 8 8 9 10 10 11 11 10 12 10 11 11 14 12 11 13 14 10 11 11 12 10 11 11 11 11 12 11 11 12 11 10 10 9 13 12 12 13 15 18 19 19
6 7 7 8 8 8 9 9 10 8 8 10 10 10 10 11 10 10 11 12 12 11 12 11 12 11 12 11 12 10 11 9 7 8 9 11 10 12 12 13 13 14 18 18 18
5 6 7 7 7 8 8 7 6 7 9 10 9 9 10 9 9 9 9 9 10 11 11 11 11 12 12 11 11 12 11 9 9 7 10 8 9 15 13 12 13 15 19 19 17
4 5 6 6 7 7 6 5 6 6 8 8 8 8 9 9 9 8 8 8 9 11 9 11 11 10 10 12 12 10 11 9 10 8 8 8 8 11 10 13 14 16 16 16 15
2 5 5 6 6 7 6 6 7 7 7 8 9 9 8 9 9 8 7 8 10 9 13 10 10 10 10 11 13 10 9 11 11 -0 5 10 10 11 10 9 11 14 14 15 15
1 2 5 6 6 7 6 8 9 8 8 10 11 10 8 7 9 7 7 8 10 10 12 12 11 9 10 12 10 11 9 9 6 8 6 9 9 12 14 11 11 10 14 16 15
1 3 5 7 6 6 7 5 7 8 11 10 11 10 9 8 9 6 8 9 9 8 12 12 11 9 9 8 9 9 9 10 9 7 8 6 12 8 13 12 12 11 18 17 16
1 3 5 6 5 6 6 7 8 7 9 9 10 11 9 9 8 8 9 10 11 9 9 10 10 6 8 8 8 9 10 10 8 8 6 6 14 11 10 11 12 14 18 17 17
0 2 4 5 5 5 7 7 8 8 9 8 9 9 10 11 10 9 8 9 10 9 9 10 9 5 8 8 7 8 8 11 9 6 10 8 13 7 9 10 13 14 17 16 16
-0 0 3 4 4 5 6 6 7 9 8 9 9 9 9 10 11 9 8 9 10 10 11 12 9 9 12 11 8 7 7 9 10 9 11 11 14 13 13 9 11 14 17 16 16
-1 -0 2 3 2 4 4 6 7 7 8 8 8 8 9 9 9 9 8 8 8 9 10 10 8 9 10 11 9 8 8 8 9 11 10 13 13 15 13 10 13 17 17 15 16
-1 -0 2 2 2 4 4 5 5 5 7 7 7 8 8 9 10 10 9 9 9 7 8 8 7 8 8 9 9 8 8 8 9 11 11 12 12 13 13 14 12 15 16 15 15
-1 -1 -1 1 1 2 3 4 5 6 6 5 7 7 8 9 10 11 11 11 10 10 8 7 6 6 8 8 8 7 9 10 9 10 10 10 12 10 13 11 13 13 13 14 15
Height
1529 1530 1530 1531 1531 1532 1534 1534 1534 1533 1533 1532 1532 1531 1531 1530 1530 1531 1531 1533 1532 1533 1534 1534 1534 1534 1534 1534 1535 1536 1552 1562 1555 1558 1548 1546 1547 1549 1550 1551 1552 1552 1552 1552 1554
1529 1530 1530 1531 1531 1533 1533 1533 1533 1533 1533 1532 1531 1530 1531 1530 1530 1530 1532 1531 1531 1532 1534 1534 1534 1535 1535 1535 1536 1537 1554 1551 1545 1546 1545 1544 1546 1547 1550 1551 1551 1550 1550 1551 1553
1528 1529 1530 1531 1531 1532 1533 1533 1533 1532 1533 1532 1531 1530 1530 1530 1530 1531 1530 1530 1531 1533 1533 1534 1534 1535 1536 1537 1538 1540 1548 1543 1543 1544 1543 1545 1546 1547 1547 1551 1546 1546 1548 1549 1551
1527 1528 1529 1530 1531 1532 1532 1532 1532 1533 1532 1531 1530 1530 1530 1530 1534 1530 1530 1530 1531 1532 1533 1534 1534 1535 1538 1539 1539 1542 1542 1543 1544 1544 1544 1544 1545 1546 1545 1544 1544 1546 1547 1547 1549
1526 1527 1528 1529 1530 1531 1531 1532 1531 1532 1530 1531 1530 1530 1530 1530 1530 1530 1530 1530 1532 1532 1534 1534 1535 1536 1539 1539 1541 1542 1543 1544 1544 1544 1545 1545 1544 1545 1543 1543 1543 1544 1545 1546 1548
1524 1525 1526 1527 1528 1529 1529 1530 1530 1530 1529 1529 1530 1530 1530 1531 1529 1529 1530 1531 1532 1533 1534 1535 1535 1536 1538 1540 1542 1543 1543 1544 1544 1544 1544 1545 1545 1545 1539 1540 1541 1542 1543 1545 1546
1522 1522 1524 1525 1526 1527 1527 1527 1528 1529 1529 1529 1529 1529 1528 1528 1528 1529 1530 1531 1532 1534 1534 1535 1535 1537 1539 1541 1543 1543 1544 1543 1541 1542 1543 1544 1547 1541 1539 1539 1539 1540 1541 1543 1544
1520 1520 1521 1522 1523 1524 1525 1526 1527 1527 1528 1528 1528 1528 1526 1525 1526 1528 1530 1531 1532 1534 1535 1535 1536 1537 1539 1542 1544 1546 1549 1553 1542 1541 1542 1544 1550 1534 1534 1535 1535 1537 1539 1540 1540
1516 1517 1518 1519 1520 1521 1523 1524 1525 1526 1526 1526 1527 1527 1524 1523 1524 1527 1529 1531 1531 1533 1534 1535 1536 1538 1541 1546 1554 1555 1558 1557 1549 1541 1542 1544 1542 1532 1533 1533 1533 1534 1534 1535 1537
1514 1514 1516 1517 1518 1519 1521 1522 1522 1524 1524 1525 1524 1528 1522 1521 1522 1524 1527 1530 1531 1532 1534 1536 1537 1542 1545 1549 1562 1556 1557 1556 1552 1542 1543 1543 1541 1532 1532 1532 1528 1530 1530 1530 1530
1511 1512 1512 1514 1515 1517 1518 1521 1524 1523 1520 1518 1518 1518 1518 1520 1522 1523 1526 1529 1531 1532 1536 1537 1544 1546 1539 1539 1539 1544 1549 1549 1544 1538 1541 1541 1537 1528 1527 1528 1526 1524 1524 1524 1522
1506 1509 1510 1510 1511 1513 1515 1518 1518 1520 1517 1514 1515 1516 1516 1518 1520 1522 1526 1529 1530 1534 1536 1542 1544 1531 1535 1539 1541 1543 1546 1549 1544 1538 1541 1537 1533 1525 1522 1518 1516 1516 1517 1514 1515
1502 1504 1505 1507 1507 1511 1512 1515 1517 1517 1517 1510 1508 1509 1512 1515 1516 1517 1521 1524 1527 1533 1535 1537 1529 1527 1533 1539 1544 1544 1547 1546 1544 1540 1539 1539 1533 1523 1511 1509 1508 1508 1505 1506 1504
1497 1500 1502 1502 1507 1507 1508 1512 1514 1517 1522 1508 1503 1500 1503 1509 1511 1512 1517 1520 1524 1527 1532 1532 1524 1527 1532 1535 1537 1544 1535 1537 1541 1545 1554 1539 1543 1521 1511 1506 1502 1497 1496 1492 1493
1495 1497 1498 1499 1501 1503 1507 1510 1513 1516 1528 1499 1498 1498 1497 1503 1504 1506 1511 1515 1520 1522 1527 1522 1524 1526 1529 1526 1530 1534 1532 1537 1538 1546 1547 1544 1551 1508 1507 1506 1497 1488 1484 1483 1485
1491 1493 1494 1495 1495 1499 1504 1507 1512 1522 1520 1497 1495 1496 1500 1501 1503 1507 1510 1513 1515 1519 1520 1520 1519 1519 1519 1522 1523 1528 1534 1542 1548 1550 1556 1530 1538 1503 1505 1491 1485 1477 1474 1476 1478
1486 1488 1490 1491 1492 1497 1501 1508 1511 1507 1497 1493 1494 1494 1497 1502 1505 1506 1509 1512 1515 1525 1520 1520 1517 1515 1516 1523 1526 1527 1537 1557 1560 1566 1540 1532 1534 1483 1487 1481 1474 1469 1468 1471 1473
1481 1483 1485 1487 1490 1494 1497 1511 1494 1498 1492 1486 1491 1492 1497 1498 1502 1505 1509 1513 1509 1509 1518 1519 1522 1512 1508 1507 1518 1528 1528 1546 1554 1557 1541 1532 1522 1490 1474 1469 1468 1467 1465 1466 1468
1477 1478 1478 1481 1487 1490 1494 1490 1486 1485 1483 1484 1490 1494 1497 1496 1499 1504 1506 1503 1497 1500 1504 1515 1513 1502 1503 1502 1506 1524 1530 1520 1532 1574 1558 1511 1490 1477 1471 1466 1464 1460 1461 1460 1463
1474 1474 1470 1476 1482 1485 1484 1473 1472 1469 1474 1477 1480 1483 1492 1494 1498 1504 1503 1489 1491 1488 1491 1496 1508 1504 1503 1503 1506 1508 1512 1533 1543 1549 1556 1510 1502 1479 1464 1463 1457 1457 1455 1455 1458
1474 1472 1465 1470 1478 1480 1463 1472 1464 1463 1467 1473 1472 1476 1479 1485 1484 1496 1489 1482 1480 1485 1488 1493 1500 1509 1506 1503 1503 1511 1513 1514 1521 1530 1530 1531 1477 1461 1452 1452 1453 1450 1449 1451 1453
1470 1467 1463 1465 1471 1466 1465 1461 1458 1460 1465 1465 1464 1464 1469 1474 1479 1483 1479 1471 1470 1476 1488 1486 1493 1509 1500 1493 1494 1495 1495 1501 1517 1520 1523 1516 1454 1447 1448 1445 1447 1447 1448 1449 1449
1466 1462 1459 1462 1458 1458 1454 1454 1456 1456 1457 1461 1459 1460 1461 1464 1473 1469 1468 1463 1468 1470 1475 1477 1491 1516 1500 1497 1496 1496 1494 1489 1499 1511 1491 1511 1445 1449 1447 1448 1448 1446 1446 1447 1448
1464 1458 1453 1456 1448 1449 1449 1447 1447 1448 1450 1452 1455 1455 1461 1455 1457 1460 1463 1460 1460 1462 1466 1466 1481 1482 1472 1476 1481 1492 1488 1486 1488 1499 1463 1474 1435 1445 1448 1451 1446 1445 1443 1445 1446
1455 1449 1447 1444 1444 1440 1445 1440 1440 1443 1443 1446 1446 1452 1450 1450 1453 1453 1457 1459 1457 1458 1462 1466 1478 1475 1462 1468 1475 1476 1478 1481 1480 1458 1478 1432 1457 1429 1444 1445 1442 1440 1441 1440 1441
1446 1445 1443 1440 1440 1439 1438 1433 1437 1440 1440 1437 1438 1436 1444 1439 1439 1441 1449 1454 1452 1457 1460 1463 1468 1473 1466 1458 1466 1469 1471 1466 1460 1453 1461 1441 1438 1436 1437 1436 1437 1433 1433 1432 1433
1438 1437 1441 1435 1436 1438 1431 1427 1426 1431 1430 1434 1435 1436 1430 1431 1433 1431 1436 1440 1439 1443 1451 1459 1466 1469 1459 1455 1467 1470 1441 1437 1453 1445 1445 1449 1405 1430 1427 1426 1425 1424 1425 1426 1427
Wind_Speed
7 7 7 6 5 4 3 2 1 1 1 1 0 0 0 0 1 3 4 4 4 5 5 4 4 5 5 5 4 4 5 3 6 7 4 8 4 7 6 12 8 9 6 6 25
6 6 5 4 4 3 3 2 2 1 1 1 1 1 1 1 2 3 3 4 5 6 5 4 3 3 3 3 3 5 4 8 6 5 4 7 6 12 7 8 5 8 11 12 25
6 4 3 3 3 2 2 1 1 1 1 2 2 1 2 1 3 1 1 4 6 7 6 5 5 3 4 3 2 3 4 5 3 3 5 7 4 7 9 4 12 16 16 21 26
7 6 4 2 2 2 1 1 2 3 3 3 2 2 2 1 3 3 3 2 6 7 6 7 5 3 3 3 2 3 1 2 2 1 5 5 4 5 14 7 10 11 16 22 26
9 8 6 5 4 3 2 3 3 4 4 4 4 4 2 2 3 3 2 4 6 7 8 6 4 4 4 3 2 2 1 1 3 3 3 4 5 6 12 14 9 13 21 23 24
12 11 10 8 7 5 4 4 5 5 5 5 5 5 3 2 3 5 4 5 6 8 7 6 4 5 5 2 3 1 0 3 3 4 4 4 4 3 10 15 13 17 22 24 25
14 13 13 12 10 8 7 6 6 6 6 6 7 7 7 5 4 6 6 7 7 6 7 6 6 3 5 3 2 2 3 5 5 6 3 5 6 10 18 13 17 20 23 25 25
13 13 14 14 13 11 10 9 8 7 7 7 7 7 5 6 9 9 8 6 7 7 5 5 4 5 3 6 5 3 5 3 2 6 2 6 8 9 18 19 22 23 25 26 27
11 11 11 13 14 14 12 11 11 9 9 8 8 6 5 6 11 12 10 7 8 8 6 5 5 3 4 5 4 6 3 4 8 9 3 5 6 3 7 18 24 27 27 29 29
13 10 10 11 13 13 12 11 12 11 12 10 12 5 10 5 7 12 11 8 6 8 6 4 3 3 3 4 5 6 4 4 5 3 3 3 12 9 8 15 27 27 30 32 33
17 12 11 12 11 12 10 9 8 6 12 9 3 4 1 7 8 9 13 11 7 6 4 2 3 7 12 9 4 5 4 5 4 3 4 7 10 13 15 17 22 27 30 35 37
18 17 16 13 13 11 10 7 7 3 7 13 19 16 8 8 7 13 15 10 6 4 6 4 7 10 4 3 3 2 3 6 5 4 5 8 12 11 7 14 31 35 36 40 40
20 18 15 15 17 17 12 11 10 5 4 8 19 21 23 19 11 18 23 11 5 6 8 8 5 5 8 4 5 5 6 5 8 3 3 5 8 9 11 22 30 32 41 42 45
20 18 16 16 18 22 17 10 11 3 2 6 7 8 20 15 9 18 26 10 4 12 7 6 4 6 5 5 8 6 8 6 5 2 4 2 6 6 6 11 9 33 38 46 48
19 17 18 17 14 14 13 14 12 6 4 2 3 3 13 13 8 12 32 15 8 8 7 8 7 7 6 7 8 7 4 6 2 3 3 4 4 4 1 8 13 24 41 41 40
12 17 14 13 25 18 16 15 17 5 9 3 3 3 5 2 3 5 13 5 4 5 2 4 1 6 7 2 6 7 5 5 4 2 4 9 9 6 7 9 6 21 36 31 26
12 13 17 19 24 24 13 20 2 6 3 5 5 5 4 4 2 3 6 7 8 6 12 2 5 3 4 5 2 4 6 2 4 1 8 4 5 18 9 10 13 15 30 27 19
16 16 17 22 24 18 28 4 4 6 7 4 2 5 5 6 4 6 7 6 8 2 3 9 7 11 7 9 8 8 8 6 7 4 5 3 7 6 10 20 25 29 34 31 27
18 19 22 21 23 22 23 6 8 6 7 9 4 2 5 4 4 3 6 5 10 12 11 7 6 2 2 3 10 5 6 4 1 2 2 6 9 8 11 13 15 28 25 28 22
14 16 30 21 20 29 10 14 10 11 7 6 15 10 10 8 7 7 9 5 6 15 5 5 3 1 1 3 2 6 7 3 2 2 5 6 7 8 6 9 15 11 24 27 20
9 7 12 16 19 21 11 8 8 9 17 9 15 11 9 9 11 7 8 4 6 6 22 4 4 1 3 7 11 4 5 2 4 5 5 3 9 8 14 10 10 12 26 22 17
9 4 9 17 14 9 15 8 7 6 13 6 4 13 10 9 9 8 16 10 20 13 12 9 4 5 9 1 2 2 1 9 4 6 5 2 18 3 8 10 12 20 16 12 11
6 15 10 20 9 13 15 22 26 8 12 7 8 8 6 13 8 11 8 8 18 13 12 9 4 1 5 3 4 5 7 10 2 3 17 4 16 4 2 4 13 14 12 10 9
4 3 16 24 26 13 20 20 22 25 14 23 9 7 5 10 13 6 7 6 24 17 15 15 5 9 15 4 5 5 7 12 14 7 14 18 31 7 4 7 8 15 12 13 13
12 6 7 5 14 16 15 6 23 22 22 26 19 22 21 17 11 18 8 4 4 13 10 9 8 7 19 15 5 7 8 17 23 32 13 35 18 24 14 12 19 26 31 26 21
9 5 8 14 16 9 22 22 25 13 11 14 22 24 26 23 22 22 19 11 11 4 7 3 8 12 24 25 17 17 9 20 27 29 24 34 31 4 5 9 15 30 34 32 29
21 28 11 12 9 6 12 17 24 17 14 25 20 18 22 26 33 34 20 25 14 20 13 11 7 7 14 17 12 7 31 25 16 20 23 24 38 5 18 16 24 31 30 34 37
Wind_Direction
166 163 163 165 165 167 176 177 164 154 164 183 234 252 150 148 171 169 160 176 174 169 165 148 134 114 113 88 82 102 66 142 187 157 237 172 140 158 171 153 181 193 204 215 184
169 169 170 170 168 179 187 186 188 205 278 284 292 314 331 304 177 177 194 204 184 175 172 156 133 122 77 73 51 77 101 196 188 200 227 187 178 161 161 161 199 193 199 190 187
179 180 180 182 180 186 219 245 252 246 264 278 295 314 333 322 145 175 176 194 189 185 172 161 144 114 80 75 46 112 163 188 208 225 230 181 193 179 160 227 206 201 190 182 187
194 193 199 207 249 238 225 270 292 298 294 297 296 307 297 160 156 114 85 132 174 174 169 161 157 96 79 85 68 94 109 158 195 222 175 178 175 200 201 218 228 218 214 193 195
217 218 217 217 229 257 292 303 300 303 311 305 310 305 280 199 164 163 124 112 153 158 160 157 133 112 117 122 81 81 151 196 209 228 223 202 215 221 235 236 228 214 205 206 206
232 231 235 236 242 248 263 288 302 311 312 308 303 303 289 257 189 192 186 159 148 154 160 153 135 112 105 104 106 107 155 261 227 227 233 200 237 222 237 236 229 214 207 208 212
241 242 242 245 246 254 263 271 283 297 302 305 307 303 279 250 215 212 196 186 176 175 167 147 133 131 134 88 80 58 348 338 234 212 227 199 291 240 237 228 220 206 206 209 214
256 245 247 249 251 254 260 269 273 280 288 295 297 301 268 247 221 197 195 198 199 198 189 175 150 132 113 126 33 47 50 11 299 162 222 155 259 262 241 222 215 211 212 217 219
248 259 260 254 249 252 256 263 271 275 274 279 287 285 261 250 229 217 218 215 208 198 188 175 158 116 125 92 22 5 235 208 313 204 135 176 262 269 229 217 223 221 222 225 229
259 252 257 266 265 253 252 258 267 274 272 269 258 277 238 222 217 214 207 197 193 184 156 163 115 77 37 103 216 200 215 239 237 210 179 224 263 266 267 225 234 234 232 233 235
251 258 256 261 266 270 250 257 270 260 232 220 193 203 225 206 193 189 191 181 167 161 145 97 107 206 203 202 149 147 182 218 240 225 189 231 253 265 245 234 240 241 239 238 240
236 239 251 254 260 260 254 215 217 223 295 247 243 234 231 196 187 190 181 174 170 166 121 46 234 231 174 171 179 162 201 250 283 249 184 266 258 260 223 231 235 240 243 243 245
246 241 241 243 251 253 245 234 244 250 266 264 235 234 226 223 213 204 186 184 154 144 193 174 206 141 158 162 181 223 204 221 227 352 259 330 281 246 251 241 251 249 254 255 252
252 244 237 248 237 242 239 232 218 211 4 259 221 225 213 205 230 212 196 179 183 191 169 234 237 147 168 193 164 239 209 199 226 145 244 146 282 279 252 257 224 252 253 255 254
241 241 243 235 228 224 235 216 190 146 269 264 178 192 172 177 141 184 188 198 175 177 143 234 178 177 182 196 163 227 128 175 145 175 5 199 277 245 335 264 257 254 257 259 260
245 240 244 236 233 237 225 180 160 95 227 290 142 146 130 153 91 114 176 183 155 138 258 241 241 174 201 96 157 145 81 55 60 103 267 209 194 206 200 222 241 249 260 267 270
249 238 228 229 225 229 222 157 114 181 147 215 185 167 149 148 102 125 158 182 172 149 222 150 219 198 166 100 67 120 102 306 322 17 241 47 208 258 287 259 228 251 266 274 269
253 242 235 224 225 231 166 134 197 202 222 96 109 105 184 155 194 159 138 194 241 160 127 189 263 169 189 191 168 194 166 170 215 208 267 138 236 247 233 264 256 260 266 271 272
271 252 250 232 221 211 178 207 204 199 187 148 94 115 208 201 161 137 200 217 200 186 190 173 259 212 171 150 152 197 204 183 7 119 355 231 272 287 253 266 271 254 260 265 268
283 275 252 242 220 205 200 221 224 171 164 165 203 178 195 184 169 185 172 207 214 193 185 206 273 229 196 116 51 161 165 76 2 242 257 270 265 228 259 245 255 268 257 265 266
268 267 271 244 214 215 227 224 232 220 186 175 208 191 212 173 184 192 208 238 191 193 195 165 178 234 134 208 171 148 198 148 142 166 203 298 260 219 218 211 228 248 256 271 280
236 239 219 196 193 213 231 200 208 181 204 238 219 205 194 174 187 199 213 212 194 148 170 212 172 208 205 226 185 40 246 173 161 220 237 204 264 163 230 221 214 250 262 277 287
239 249 221 207 219 219 228 238 239 192 198 212 209 214 190 204 220 207 212 197 185 163 174 163 204 337 326 10 8 217 200 205 142 71 241 155 265 12 137 257 232 239 260 273 272
231 267 226 231 253 239 220 234 238 229 221 214 252 185 199 211 204 216 222 218 199 200 198 165 164 199 231 173 140 195 210 198 201 223 247 235 254 263 276 263 279 251 258 271 278
204 236 236 195 237 247 240 261 238 235 219 210 218 232 227 215 204 225 198 210 206 217 186 148 221 244 257 260 221 200 204 202 209 228 210 254 246 259 235 233 246 272 284 270 259
206 216 225 260 288 247 236 249 245 257 244 235 232 211 222 232 223 229 220 202 218 165 176 158 232 233 257 251 241 249 225 219 218 232 231 249 260 130 245 264 250 251 254 259 261
238 236 267 246 246 255 245 237 244 249 228 235 255 249 238 228 234 240 237 217 211 208 202 181 194 200 241 248 240 257 241 238 222 228 222 238 249 141 263 247 253 260 259 259 267